Wind_Speed
14 10 11 9 12 10 9 6 6 7 5 8 8 11 4 2 1 4 5 7 10 11 8 11 15 16 15 15 16 17 17 17 18 17 15 13 12 13 15 16 17 17 18 16
13 12 9 8 8 8 8 8 8 4 5 11 8 3 5 7 2 2 3 6 11 14 14 14 16 17 17 18 18 18 17 16 15 14 14 14 14 13 14 17 18 17 17 17
16 8 13 10 8 8 10 11 7 7 9 8 6 5 12 13 9 7 8 9 11 13 15 16 16 16 18 19 18 17 17 16 16 16 17 16 15 15 13 13 16 16 18 22
18 16 13 14 12 11 11 8 9 8 6 3 4 3 3 3 4 9 12 13 14 15 17 20 21 17 16 17 18 19 18 18 19 19 18 18 16 16 15 15 16 18 22 25
18 16 16 13 15 14 9 6 6 7 8 5 5 9 4 4 6 6 12 17 18 17 17 19 19 21 19 19 19 19 20 20 20 20 20 19 20 21 22 21 23 23 24 24
17 14 11 8 7 12 9 5 1 4 5 8 3 5 4 3 6 6 7 11 21 25 22 20 19 22 22 21 21 21 20 20 19 19 21 20 20 22 26 24 25 27 28 28
23 19 14 10 7 11 9 7 7 6 5 3 3 5 11 8 4 7 9 11 16 22 29 26 26 24 22 24 24 23 21 17 16 17 19 22 22 23 24 23 25 30 30 30
26 22 20 16 13 10 14 13 6 6 5 5 4 6 2 6 8 9 8 10 12 21 24 32 29 26 25 24 25 24 21 21 18 19 21 19 29 27 25 28 30 32 30 30
27 22 16 18 16 12 11 13 10 2 2 3 7 7 7 4 8 6 3 7 7 13 22 28 30 30 29 27 24 22 22 19 17 16 22 25 20 22 22 29 32 34 30 29
13 20 17 16 19 17 12 12 8 7 4 6 6 7 8 2 3 3 7 6 6 6 14 20 28 30 31 30 30 29 29 29 28 29 26 26 28 28 28 27 27 31 29 28
23 16 10 23 19 16 16 14 10 7 6 4 3 5 7 7 4 5 4 7 6 2 0 10 17 20 23 28 30 27 27 28 27 27 25 27 27 28 28 27 27 26 27 29
30 17 17 16 17 20 18 17 18 13 10 8 7 15 16 14 10 6 8 8 7 8 9 7 6 14 20 23 26 27 28 29 27 28 27 27 25 22 22 21 26 24 27 34
35 21 17 17 15 20 19 19 17 16 16 15 11 12 4 7 13 14 10 11 11 10 10 9 9 10 12 14 14 16 19 21 24 24 24 22 23 24 26 24 25 26 33 34
35 25 28 24 18 15 21 21 20 20 18 18 21 21 17 18 16 15 14 14 13 16 13 13 13 14 16 15 14 16 17 18 18 19 22 23 24 25 25 26 28 34 30 28
33 30 27 26 20 18 19 19 21 26 26 24 20 20 20 18 18 18 19 16 14 18 19 18 17 19 21 20 19 18 20 22 24 24 25 26 28 28 29 30 30 31 30 34
34 25 23 21 21 22 22 22 23 24 20 21 23 24 19 19 20 20 22 20 19 18 20 20 20 20 24 25 25 24 24 25 26 28 29 31 32 32 32 32 30 28 25 24
29 27 22 23 18 16 20 28 22 21 24 22 23 23 20 24 26 25 26 24 25 26 28 28 27 26 27 27 26 27 27 27 28 30 32 33 30 28 29 31 25 21 27 30
23 29 23 19 18 8 26 21 21 24 23 23 26 25 27 28 27 29 28 29 27 27 24 23 23 23 21 21 21 22 23 24 26 27 27 27 29 30 23 21 23 26 28 31
15 21 23 17 20 19 17 24 24 26 25 24 23 27 23 27 23 23 23 24 22 18 17 16 16 15 15 16 19 21 23 24 24 25 26 27 24 23 18 24 28 28 28 33
20 24 18 17 11 8 21 25 25 21 24 23 25 19 21 21 24 18 18 18 18 19 19 17 16 16 17 18 20 22 22 22 22 22 23 24 23 24 24 25 29 30 31 29
24 24 27 21 11 14 16 15 16 17 31 16 18 19 20 18 19 21 18 19 21 21 19 17 16 15 17 18 19 19 19 20 21 23 22 22 23 23 24 27 29 27 27 28
14 21 22 21 14 14 20 19 24 28 20 18 19 20 20 20 19 19 19 20 23 21 19 17 16 17 18 18 19 19 19 21 21 22 22 19 21 26 28 27 26 27 27 28
20 16 18 23 19 21 18 15 19 21 20 21 21 23 22 21 21 20 22 23 23 21 19 19 18 18 18 19 19 20 20 20 21 20 20 22 27 26 24 25 26 27 29 31
35 35 29 28 27 25 24 24 26 25 24 25 24 25 25 22 21 23 25 25 24 23 22 20 19 19 20 21 21 21 20 22 21 21 24 27 24 23 25 25 26 29 31 33
25 26 38 46 39 33 33 28 27 24 24 24 25 26 26 22 22 23 27 27 26 24 23 22 22 22 22 22 23 23 23 23 22 25 26 22 23 24 25 27 29 32 34 36
30 30 32 33 27 27 26 25 29 29 29 31 29 28 25 23 24 25 28 28 26 26 26 25 24 23 24 24 26 26 26 26 25 22 21 23 24 25 27 30 33 32 35 38
Wind_Direction
225 222 231 248 227 242 232 252 267 288 275 304 307 309 300 289 234 209 195 192 188 197 188 176 176 181 168 164 164 161 165 167 173 177 178 182 187 194 203 209 215 222 227 234
219 222 226 213 216 226 229 247 270 254 283 313 302 287 201 190 144 167 201 177 171 192 198 187 175 169 163 163 163 164 165 168 171 174 179 185 196 205 213 219 224 229 234 242
217 219 212 210 222 232 241 254 263 266 296 304 300 211 206 230 234 214 198 198 205 198 192 190 185 177 173 172 173 174 176 179 184 191 200 205 209 214 223 231 236 237 243 244
225 223 214 232 240 235 243 249 255 258 279 242 260 258 197 245 269 235 222 215 217 211 198 199 199 195 191 187 187 190 195 199 204 211 217 222 229 230 232 235 235 236 250 254
217 220 226 239 251 225 227 234 238 243 240 265 210 257 150 273 264 274 228 222 222 226 222 213 208 203 207 205 203 205 209 215 220 225 231 236 241 245 243 240 247 252 258 274
217 203 212 237 204 185 210 222 214 198 204 239 205 255 281 225 267 263 251 242 225 223 226 219 217 218 217 214 215 218 222 228 234 238 241 246 257 260 257 247 253 257 265 267
214 218 225 219 186 200 205 203 182 191 207 252 134 266 264 286 295 289 254 250 248 231 221 223 221 214 211 212 217 222 226 235 240 246 254 253 256 266 265 254 263 262 262 264
205 208 213 217 206 220 210 208 229 222 195 189 227 245 255 274 293 290 274 258 260 232 225 221 221 224 224 225 225 229 233 244 252 249 253 261 249 256 255 263 263 266 265 269
203 212 201 215 219 203 208 208 220 208 207 255 252 254 272 243 315 294 310 275 260 230 223 222 223 229 234 236 237 241 238 240 248 257 263 266 274 271 261 268 266 266 263 257
212 213 214 218 214 211 206 209 187 210 226 243 212 249 261 276 148 106 354 7 16 240 220 218 222 225 229 233 239 241 243 252 258 261 263 268 274 271 273 270 268 264 259 253
210 206 199 217 213 209 204 211 212 216 220 256 267 247 226 213 243 268 305 341 353 350 73 227 228 223 228 228 225 225 232 240 241 249 251 256 264 268 273 273 266 267 259 254
202 212 214 211 218 218 219 226 216 219 210 226 259 272 266 249 260 233 275 286 289 289 299 283 247 232 235 224 228 232 233 235 236 245 250 254 265 268 269 264 263 257 258 260
202 213 211 223 231 227 224 226 223 231 243 242 248 265 206 190 260 282 279 266 267 271 280 280 259 247 215 210 218 226 233 238 242 247 252 259 266 275 276 286 289 269 264 259
211 211 216 225 221 222 227 230 233 238 240 253 250 269 270 264 267 262 259 278 262 260 258 270 266 248 230 225 230 232 241 249 252 257 264 270 274 276 275 276 278 272 272 270
212 219 227 234 238 242 244 244 237 235 245 250 257 266 276 273 270 264 252 261 269 261 258 254 261 252 248 245 242 243 248 255 264 267 271 275 276 274 274 276 278 279 281 278
216 220 224 228 233 243 246 252 246 243 245 249 260 269 283 287 277 268 257 255 258 256 254 255 255 258 249 246 246 246 250 257 264 268 273 275 274 273 274 274 274 283 279 287
214 207 216 229 240 238 250 251 240 236 249 260 264 278 286 287 283 273 264 263 265 266 265 262 259 257 251 246 249 251 253 256 261 265 268 266 270 270 272 280 286 273 287 284
217 218 221 230 235 228 251 251 243 247 256 260 267 280 287 283 276 272 267 267 264 265 261 258 253 247 245 247 250 255 262 268 269 270 269 269 274 280 283 285 275 282 282 289
214 210 217 217 224 246 244 244 248 252 261 261 268 288 280 283 279 271 265 260 257 248 240 232 230 235 244 255 266 272 275 274 273 273 275 278 280 283 271 276 286 284 288 295
217 216 208 203 218 224 251 256 259 255 254 266 280 281 283 276 265 263 264 247 233 225 225 231 241 254 265 274 278 278 277 276 278 280 281 283 279 276 277 276 282 291 296 295
207 215 215 218 229 240 244 243 250 223 262 274 284 282 295 273 259 262 263 238 226 224 231 243 256 269 279 281 280 278 277 276 278 278 277 276 280 277 278 287 293 292 293 296
214 211 216 218 228 236 243 242 231 270 270 278 285 276 291 277 263 252 244 231 226 233 241 251 265 280 283 281 279 277 278 283 284 286 287 280 272 285 292 292 293 295 297 301
249 239 233 229 238 246 253 261 264 264 267 279 285 272 286 278 265 250 238 231 233 242 248 259 273 279 278 276 274 275 283 285 288 284 278 280 290 290 290 292 294 298 302 305
240 241 251 252 250 255 259 272 271 272 277 282 285 269 281 270 260 241 233 232 241 246 251 261 272 275 273 272 273 279 284 289 285 280 285 292 287 288 291 294 298 301 303 304
243 241 244 248 253 256 263 263 273 274 275 280 277 273 275 267 245 235 234 240 244 249 254 263 271 273 271 271 272 280 286 285 279 286 288 285 289 292 295 298 301 302 302 304
234 236 240 249 260 256 264 262 261 271 277 283 268 266 264 257 240 236 239 244 248 250 255 261 266 269 270 270 279 284 285 279 279 284 285 288 292 295 297 299 300 300 304 306
Height
3125 3127 3125 3125 3125 3125 3125 3125 3124 3123 3123 3123 3121 3119 3119 3118 3118 3119 3119 3120 3120 3122 3123 3124 3125 3127 3129 3131 3133 3135 3137 3139 3142 3144 3147 3149 3151 3153 3154 3156 3157 3159 3160 3161
3124 3122 3123 3123 3123 3124 3125 3124 3123 3122 3122 3120 3119 3118 3117 3118 3118 3119 3120 3120 3121 3121 3122 3125 3126 3128 3129 3131 3134 3135 3137 3140 3142 3144 3146 3148 3150 3151 3153 3154 3155 3156 3157 3158
3120 3121 3120 3121 3122 3122 3122 3123 3122 3122 3120 3118 3116 3115 3116 3117 3117 3118 3119 3120 3120 3121 3122 3124 3126 3128 3130 3132 3134 3136 3138 3140 3142 3144 3145 3147 3148 3150 3151 3152 3152 3153 3154 3153
3118 3118 3118 3119 3120 3121 3119 3120 3120 3120 3119 3115 3115 3110 3114 3114 3114 3115 3117 3118 3119 3120 3121 3123 3125 3127 3129 3131 3132 3134 3136 3137 3139 3141 3143 3145 3146 3146 3147 3148 3149 3148 3148 3148
3114 3113 3115 3116 3116 3117 3119 3117 3117 3117 3117 3117 3115 3114 3108 3112 3113 3112 3113 3115 3117 3118 3120 3121 3123 3124 3126 3128 3130 3132 3133 3135 3136 3138 3140 3141 3142 3143 3143 3144 3143 3143 3143 3143
3110 3109 3112 3113 3111 3113 3114 3115 3115 3116 3117 3113 3113 3114 3105 3108 3110 3110 3110 3110 3112 3114 3116 3118 3121 3122 3124 3126 3127 3128 3130 3132 3133 3134 3136 3137 3139 3138 3139 3138 3138 3137 3136 3136
3105 3106 3108 3109 3111 3112 3113 3115 3112 3114 3112 3109 3111 3112 3107 3108 3107 3107 3107 3107 3107 3108 3111 3114 3116 3118 3120 3122 3124 3125 3127 3129 3130 3131 3132 3133 3134 3133 3133 3133 3132 3131 3130 3129
3098 3102 3103 3104 3108 3110 3110 3112 3109 3107 3107 3106 3109 3106 3103 3105 3104 3103 3103 3103 3102 3102 3104 3108 3111 3114 3116 3118 3120 3122 3123 3125 3126 3127 3128 3127 3127 3128 3128 3127 3126 3124 3123 3122
3092 3096 3098 3101 3103 3107 3107 3108 3109 3109 3109 3109 3104 3104 3102 3102 3101 3101 3100 3099 3099 3099 3100 3103 3106 3109 3111 3113 3116 3118 3119 3120 3121 3122 3122 3123 3122 3123 3122 3120 3118 3116 3115 3115
3089 3094 3095 3096 3099 3101 3103 3104 3107 3107 3106 3103 3099 3101 3099 3101 3100 3100 3099 3098 3097 3097 3098 3099 3101 3103 3105 3107 3110 3111 3114 3115 3116 3116 3117 3117 3117 3117 3115 3113 3112 3110 3108 3109
3087 3089 3091 3093 3093 3096 3099 3100 3102 3102 3102 3099 3098 3097 3098 3099 3099 3098 3098 3097 3097 3097 3096 3097 3098 3099 3101 3102 3103 3105 3107 3108 3109 3110 3110 3111 3110 3109 3107 3106 3105 3103 3102 3102
3080 3084 3086 3089 3089 3091 3093 3095 3096 3097 3098 3098 3098 3097 3095 3095 3095 3095 3095 3095 3095 3095 3095 3095 3095 3096 3096 3097 3099 3101 3102 3103 3103 3103 3103 3104 3103 3102 3100 3098 3097 3096 3095 3094
3073 3077 3081 3084 3087 3086 3087 3089 3092 3093 3093 3093 3095 3093 3091 3091 3092 3092 3092 3091 3092 3092 3092 3092 3092 3092 3091 3093 3094 3096 3096 3097 3097 3098 3097 3098 3097 3096 3094 3093 3091 3088 3087 3084
3067 3071 3073 3074 3077 3081 3083 3084 3085 3088 3088 3089 3087 3087 3088 3088 3088 3089 3088 3087 3088 3088 3088 3088 3088 3089 3089 3089 3090 3090 3091 3091 3092 3092 3092 3092 3091 3089 3088 3087 3085 3083 3081 3079
3062 3065 3069 3071 3074 3076 3077 3078 3080 3081 3082 3083 3082 3081 3082 3083 3083 3084 3083 3083 3083 3083 3083 3083 3083 3083 3084 3084 3085 3085 3085 3085 3085 3085 3085 3084 3083 3082 3081 3079 3078 3076 3074 3071
3055 3060 3063 3065 3068 3070 3071 3071 3073 3075 3076 3077 3077 3076 3078 3077 3076 3077 3077 3077 3077 3077 3078 3078 3078 3077 3077 3078 3078 3079 3079 3080 3078 3077 3077 3076 3075 3074 3073 3072 3070 3069 3067 3064
3050 3054 3057 3059 3062 3064 3065 3063 3067 3069 3070 3071 3071 3072 3072 3070 3069 3069 3070 3070 3070 3070 3071 3071 3071 3071 3071 3071 3072 3072 3072 3071 3071 3071 3070 3069 3068 3067 3065 3063 3062 3061 3059 3057
3043 3048 3053 3055 3057 3057 3057 3059 3061 3063 3065 3065 3065 3065 3064 3062 3061 3060 3061 3061 3061 3061 3062 3062 3063 3063 3064 3065 3065 3066 3066 3066 3065 3064 3063 3061 3060 3058 3057 3055 3054 3052 3051 3049
3039 3043 3046 3048 3050 3051 3051 3052 3056 3057 3058 3059 3059 3058 3057 3053 3053 3052 3053 3053 3053 3054 3055 3056 3057 3058 3059 3059 3059 3059 3058 3058 3057 3056 3055 3054 3052 3050 3049 3048 3046 3044 3043 3040
3034 3036 3040 3041 3042 3042 3045 3048 3051 3052 3049 3052 3052 3051 3050 3047 3046 3048 3047 3047 3048 3050 3051 3052 3053 3053 3054 3054 3053 3053 3051 3050 3049 3048 3047 3045 3044 3042 3041 3040 3039 3037 3034 3031
3026 3029 3031 3035 3034 3035 3039 3042 3045 3048 3044 3046 3046 3045 3044 3042 3042 3042 3042 3042 3044 3046 3047 3048 3048 3049 3049 3048 3047 3046 3045 3043 3042 3041 3040 3038 3036 3035 3034 3033 3030 3028 3026 3023
3022 3024 3025 3029 3029 3030 3034 3036 3038 3038 3038 3039 3039 3039 3038 3037 3036 3036 3036 3038 3040 3042 3043 3043 3043 3043 3043 3041 3040 3039 3038 3036 3035 3033 3032 3030 3030 3028 3026 3024 3022 3019 3017 3014
3019 3019 3022 3021 3021 3024 3027 3030 3031 3032 3033 3033 3033 3033 3032 3031 3031 3031 3031 3033 3035 3037 3038 3037 3037 3036 3036 3034 3033 3032 3030 3029 3027 3026 3025 3024 3022 3020 3017 3016 3013 3011 3008 3005
3009 3014 3015 3017 3015 3018 3022 3024 3026 3026 3027 3027 3026 3025 3026 3025 3025 3025 3026 3028 3029 3030 3031 3031 3030 3029 3028 3027 3025 3024 3023 3022 3021 3019 3018 3016 3014 3012 3010 3008 3005 3002 3000 2996
3003 3005 3007 3006 3010 3013 3016 3017 3019 3019 3020 3020 3019 3018 3018 3018 3019 3020 3022 3023 3023 3024 3024 3024 3023 3022 3021 3020 3019 3017 3016 3015 3014 3012 3010 3008 3006 3004 3002 2999 2997 2993 2990 2987
2995 2998 2999 2999 3006 3008 3011 3010 3011 3012 3011 3011 3010 3010 3010 3011 3012 3013 3015 3017 3017 3016 3016 3016 3015 3015 3014 3012 3011 3009 3008 3007 3005 3004 3003 3001 2999 2997 2994 2991 2987 2985 2981 2976